Regional Weather Roundup
Issued by NWS

Home | Current Version | Previous Version | Text Only | Print | Product List | Glossary Off
Versions: 1 2 3 4 5 6 7 8 9 10 11 12 13 14 15 16 17 18 19 20 21 22 23 24 25 26 27 28 29 30 31 32 33 34 35 36 37 38 39 40 41 42 43 44 45 46 47 48 49 50

000
ASUS45 KCYS 220710
RWRWY

WYOMING REGIONAL WEATHER ROUNDUP
NATIONAL WEATHER SERVICE CHEYENNE WY
100 AM MDT TUE JUL 22 2014

NOTE:  "FAIR" INDICATES FEW OR NO CLOUDS BELOW 12,000 FEET
WITH NO SIGNIFICANT WEATHER AND/OR OBSTRUCTIONS TO VISIBILITY.

WYZ001-220800-
YELLOWSTONE NATIONAL PARK

CITY           SKY/WX    TMP DP  RH WIND       PRES   REMARKS
LK YELLOWSTONE   N/A     46  45  96 CALM      30.42S
W YELLOWSTONE  NOT AVBL

$$
WYZ002>013-054>058-071-098>099-220800-
NORTHERN WYOMING

CITY           SKY/WX    TMP DP  RH WIND       PRES   REMARKS
JACKSON        MOCLDY    54  46  76 E3        30.30F
CODY           CLOUDY    70  43  37 SW14      30.18F
GREYBULL       PTCLDY    72  47  40 SW8       30.11R
WORLAND        PTCLDY    61  49  64 S7        30.16R
SHERIDAN       PTCLDY    61  55  81 SE7       30.12F
BUFFALO        CLEAR     62  49  62 SW8       30.22R
GILLETTE       CLEAR     60  57  89 S7        30.16R
HULETT         FAIR      61  55  82 MISG      30.14
NEWCASTLE      FAIR      72  52  49 MISG      30.17

$$
WYZ014>020-022>026-101>103-220800-
CENTRAL WYOMING

CITY           SKY/WX    TMP DP  RH WIND       PRES   REMARKS
BIG PINEY      PTCLDY    58  42  55 NE12      30.36S
PINEDALE       MOSUNNY   55  39  54 NW5       30.37R
DUBOIS         FAIR      50  41  71 CALM      30.37R
LANDER         PTCLDY    60  41  49 SE12      30.25R
RIVERTON       PTCLDY    66  39  37 VRB5      30.26R
CASPER         PTCLDY    64  50  60 N9        30.27R
DOUGLAS        MOCLDY    68  49  50 NW6       30.24R

$$
WYZ021-027>030-104>119-220800-
SOUTHERN WYOMING

CITY           SKY/WX    TMP DP  RH WIND       PRES   REMARKS
EVANSTON       CLEAR     61  41  47 N9        30.35R
KEMMERER       MOSUNNY   59  36  41 N9        30.36S
FORT BRIDGER   FAIR      63  31  29 NW7       30.38R
ROCK SPRINGS   PTCLDY    67  30  25 S3        30.32R
DIXON          FAIR      55  36  49 CALM      30.32R
RAWLINS        CLEAR     57  31  37 N9        30.32R
SARATOGA       FAIR      59  32  36 CALM      30.35R
LARAMIE        CLEAR     62  34  35 SW3       30.35R
CHEYENNE       PTCLDY    63  41  44 SW7       30.27R
TORRINGTON     PTCLDY    70  52  52 N5        30.09S
PINE BLUFFS    FAIR      64  46  52 S6        30.18R

$$



USA.gov is the U.S. government's official web portal to all federal, state and local government web resources and services.